TAM3257 SBGR-SBBR

Flight info

Callsign TAM3257
Flight time 1h 20m
Altitude 36000
Route ISMOB UZ26 BIXAN/N0445F380 UZ26 AZOIC
Aircraft A319/M-SDE3FGHIRWY/LB1

Departure

Time 2026-04-30 18:27
Airport São Paulo/Guarulhos–Governor André Franco Montoro International Airport (SBGR)

Arrival

Time 2026-04-30 19:47
Airport Presidente Juscelino Kubitschek International Airport (SBBR)
Time Latitude Longitude Altitude Speed Heading
2026-04-30 18:02 -23.42761 -46.48251 2465 ft 0 kts 264°
2026-04-30 18:18 -23.42760 -46.48241 2465 ft 4 kts 261°
2026-04-30 18:18 -23.42754 -46.48215 2465 ft 4 kts 241°
2026-04-30 18:19 -23.42739 -46.48195 2466 ft 4 kts 210°
2026-04-30 18:19 -23.42724 -46.48188 2466 ft 4 kts 186°
2026-04-30 18:19 -23.42712 -46.48187 2465 ft 0 kts 174°
2026-04-30 18:23 -23.42744 -46.48183 2465 ft 8 kts 173°
2026-04-30 18:23 -23.42793 -46.48178 2466 ft 12 kts 174°
2026-04-30 18:23 -23.42884 -46.48167 2468 ft 15 kts 170°
2026-04-30 18:24 -23.43099 -46.48124 2466 ft 14 kts 169°
2026-04-30 18:24 -23.43186 -46.48116 2472 ft 12 kts 207°
2026-04-30 18:24 -23.43217 -46.48197 2471 ft 12 kts 255°
2026-04-30 18:25 -23.43242 -46.48288 2470 ft 13 kts 250°
2026-04-30 18:25 -23.43417 -46.48317 2462 ft 14 kts 143°
2026-04-30 18:25 -23.43406 -46.48247 2462 ft 9 kts 68°
2026-04-30 18:26 -23.43258 -46.47706 2463 ft 92 kts 73°
2026-04-30 18:26 -23.43023 -46.46835 2469 ft 145 kts 74°
2026-04-30 18:26 -23.42716 -46.45654 2722 ft 168 kts 77°
2026-04-30 18:27 -23.41185 -46.43605 3813 ft 184 kts 43°
2026-04-30 18:27 -23.40225 -46.42653 4336 ft 191 kts 44°
2026-04-30 18:28 -23.38074 -46.40429 4967 ft 238 kts 43°
2026-04-30 18:28 -23.36810 -46.39131 5405 ft 262 kts 44°
2026-04-30 18:28 -23.34086 -46.36174 6851 ft 285 kts 44°
2026-04-30 18:29 -23.32682 -46.34616 7699 ft 290 kts 44°
2026-04-30 18:29 -23.28396 -46.29840 10238 ft 302 kts 44°
2026-04-30 18:30 -23.25251 -46.26354 11026 ft 338 kts 43°
2026-04-30 18:30 -23.21906 -46.22649 12320 ft 348 kts 45°
2026-04-30 18:31 -23.20195 -46.20751 12940 ft 354 kts 45°
2026-04-30 18:31 -23.16715 -46.16885 14169 ft 362 kts 45°
2026-04-30 18:32 -23.12959 -46.13198 15271 ft 368 kts 27°
2026-04-30 18:32 -23.10547 -46.12325 15822 ft 368 kts
2026-04-30 18:32 -23.05705 -46.13582 16951 ft 364 kts 322°
2026-04-30 18:33 -23.03820 -46.15400 17551 ft 363 kts 313°
2026-04-30 18:33 -23.00184 -46.19247 18686 ft 367 kts 314°
2026-04-30 18:33 -22.98352 -46.21185 19198 ft 369 kts 314°
2026-04-30 18:34 -22.96507 -46.23130 19734 ft 370 kts 314°
2026-04-30 18:34 -22.92794 -46.27037 20787 ft 374 kts 313°
2026-04-30 18:34 -22.90949 -46.29029 21306 ft 375 kts 309°
2026-04-30 18:35 -22.89411 -46.31304 21813 ft 374 kts 298°
2026-04-30 18:35 -22.88251 -46.33824 22304 ft 375 kts 294°
2026-04-30 18:35 -22.87123 -46.36383 22826 ft 377 kts 294°
2026-04-30 18:36 -22.84832 -46.41529 23782 ft 381 kts 295°
2026-04-30 18:36 -22.83674 -46.44120 24191 ft 383 kts 294°
2026-04-30 18:36 -22.81343 -46.49340 24989 ft 386 kts 294°
2026-04-30 18:37 -22.80184 -46.51936 25374 ft 389 kts 294°
2026-04-30 18:37 -22.79004 -46.54579 25764 ft 391 kts 294°
2026-04-30 18:37 -22.77816 -46.57239 26154 ft 393 kts 294°
2026-04-30 18:37 -22.76619 -46.59910 26555 ft 395 kts 294°
2026-04-30 18:38 -22.75415 -46.62587 26955 ft 397 kts 294°
2026-04-30 18:38 -22.74206 -46.65280 27335 ft 399 kts 294°
2026-04-30 18:38 -22.72992 -46.67992 27719 ft 400 kts 294°
2026-04-30 18:38 -22.71776 -46.70709 28093 ft 402 kts 294°
2026-04-30 18:39 -22.70550 -46.73442 28470 ft 404 kts 294°
2026-04-30 18:39 -22.69318 -46.76189 28850 ft 407 kts 294°
2026-04-30 18:39 -22.68079 -46.78953 29231 ft 409 kts 294°
2026-04-30 18:39 -22.66836 -46.81728 29583 ft 411 kts 294°
2026-04-30 18:40 -22.65582 -46.84525 29940 ft 414 kts 294°
2026-04-30 18:40 -22.64313 -46.87326 30270 ft 416 kts 295°
2026-04-30 18:40 -22.62714 -46.89960 30571 ft 422 kts 307°
2026-04-30 18:40 -22.60610 -46.92210 30876 ft 429 kts 318°
2026-04-30 18:41 -22.58082 -46.93976 31169 ft 438 kts 329°
2026-04-30 18:41 -22.55214 -46.95170 31463 ft 445 kts 339°
2026-04-30 18:41 -22.52237 -46.96130 31763 ft 447 kts 339°
2026-04-30 18:41 -22.49260 -46.97086 32189 ft 446 kts 339°
2026-04-30 18:42 -22.46292 -46.98040 32606 ft 444 kts 339°
2026-04-30 18:42 -22.40380 -46.99949 33438 ft 443 kts 338°
2026-04-30 18:42 -22.37432 -47.00899 33883 ft 442 kts 338°
2026-04-30 18:45 -22.08237 -47.10289 36030 ft 432 kts 338°
2026-04-30 18:45 -22.05359 -47.11215 36029 ft 432 kts 338°
2026-04-30 18:46 -21.99596 -47.13075 36038 ft 433 kts 338°
2026-04-30 18:46 -21.93821 -47.14926 36040 ft 433 kts 338°
2026-04-30 18:47 -21.88047 -47.16773 36035 ft 433 kts 338°
2026-04-30 18:47 -21.82274 -47.18621 36021 ft 433 kts 338°
2026-04-30 18:48 -21.76371 -47.20038 35992 ft 439 kts 348°
2026-04-30 18:48 -21.70338 -47.20830 35988 ft 440 kts 348°
2026-04-30 18:49 -21.64260 -47.21627 35991 ft 440 kts 348°
2026-04-30 18:49 -21.58139 -47.22433 35993 ft 440 kts 348°
2026-04-30 18:50 -21.52058 -47.23227 35994 ft 440 kts 348°
2026-04-30 18:50 -21.46012 -47.24017 35997 ft 440 kts 348°
2026-04-30 18:51 -21.39975 -47.24809 35998 ft 440 kts 348°
2026-04-30 18:51 -21.33895 -47.25626 35991 ft 440 kts 347°
2026-04-30 18:52 -21.27808 -47.26628 35997 ft 439 kts 346°
2026-04-30 18:52 -21.21820 -47.27689 35997 ft 439 kts 346°
2026-04-30 18:53 -21.15777 -47.28733 36000 ft 440 kts 346°
2026-04-30 18:53 -21.09726 -47.29738 35997 ft 440 kts 347°
2026-04-30 18:54 -21.03668 -47.30734 35997 ft 440 kts 347°
2026-04-30 18:54 -20.97618 -47.31732 35997 ft 440 kts 347°
2026-04-30 18:55 -20.91564 -47.32736 35996 ft 440 kts 347°
2026-04-30 18:55 -20.82495 -47.34247 36001 ft 440 kts 347°
2026-04-30 18:56 -20.73433 -47.35761 36003 ft 439 kts 347°
2026-04-30 18:57 -20.64365 -47.37257 36000 ft 440 kts 347°
2026-04-30 18:57 -20.58322 -47.38259 36003 ft 440 kts 347°
2026-04-30 18:58 -20.49267 -47.39654 36008 ft 440 kts 348°
2026-04-30 18:59 -20.40163 -47.41002 36004 ft 440 kts 348°
2026-04-30 19:00 -20.28033 -47.42828 35999 ft 440 kts 348°
2026-04-30 19:01 -20.15926 -47.44647 35987 ft 439 kts 349°
2026-04-30 19:02 -20.06846 -47.46008 35994 ft 439 kts 349°
2026-04-30 19:03 -19.94748 -47.47811 35986 ft 439 kts 349°
2026-04-30 19:04 -19.82651 -47.49625 35993 ft 439 kts 349°
2026-04-30 19:05 -19.70556 -47.51420 35995 ft 439 kts 350°
2026-04-30 19:06 -19.58450 -47.53192 36004 ft 439 kts 350°
2026-04-30 19:06 -19.49364 -47.54519 36005 ft 440 kts 350°
2026-04-30 19:07 -19.40260 -47.55846 36004 ft 440 kts 350°
2026-04-30 19:08 -19.28158 -47.57612 36003 ft 440 kts 350°
2026-04-30 19:09 -19.19017 -47.58940 36004 ft 440 kts 350°
2026-04-30 19:09 -19.12947 -47.59824 36009 ft 440 kts 350°
2026-04-30 19:10 -19.01830 -47.61444 36006 ft 441 kts 350°
2026-04-30 19:11 -18.92713 -47.62711 36008 ft 440 kts 351°
2026-04-30 19:12 -18.86634 -47.63542 36005 ft 441 kts 351°
2026-04-30 19:12 -18.80553 -47.64384 36003 ft 441 kts 350°
2026-04-30 19:13 -18.68403 -47.66081 36002 ft 440 kts 351°
2026-04-30 19:14 -18.62335 -47.66917 35993 ft 440 kts 351°
2026-04-30 19:14 -18.56268 -47.67764 35998 ft 440 kts 350°
2026-04-30 19:15 -18.50209 -47.68660 35989 ft 440 kts 350°
2026-04-30 19:15 -18.41115 -47.70016 35988 ft 440 kts 350°
2026-04-30 19:16 -18.35101 -47.70902 35987 ft 440 kts 350°
2026-04-30 19:17 -18.26086 -47.72631 35987 ft 439 kts 345°
2026-04-30 19:17 -18.17160 -47.74801 35989 ft 439 kts 345°
2026-04-30 19:18 -18.08232 -47.76964 35989 ft 439 kts 345°
2026-04-30 19:19 -18.02286 -47.78404 35983 ft 439 kts 346°
2026-04-30 19:19 -17.93365 -47.80562 35985 ft 438 kts 345°
2026-04-30 19:20 -17.90392 -47.81283 35809 ft 439 kts 345°
2026-04-30 19:20 -17.87413 -47.82006 35566 ft 439 kts 345°
2026-04-30 19:20 -17.81471 -47.83447 35100 ft 439 kts 346°
2026-04-30 19:21 -17.78508 -47.84165 34863 ft 438 kts 346°
2026-04-30 19:21 -17.72612 -47.85587 34042 ft 434 kts 346°
2026-04-30 19:22 -17.66790 -47.86988 33077 ft 429 kts 346°
2026-04-30 19:22 -17.58135 -47.89070 31694 ft 422 kts 346°
2026-04-30 19:23 -17.49663 -47.91121 30388 ft 415 kts 347°
2026-04-30 19:24 -17.44067 -47.92467 29508 ft 410 kts 347°
2026-04-30 19:24 -17.41293 -47.93132 29102 ft 406 kts 347°
2026-04-30 19:24 -17.35832 -47.94448 28325 ft 399 kts 347°
2026-04-30 19:25 -17.27799 -47.96384 27148 ft 391 kts 347°
2026-04-30 19:26 -17.22570 -47.97637 26355 ft 387 kts 348°
2026-04-30 19:26 -17.17347 -47.98887 25533 ft 383 kts 348°
2026-04-30 19:26 -17.14757 -47.99510 25120 ft 381 kts 348°
2026-04-30 19:27 -17.09620 -48.00742 24247 ft 378 kts 348°
2026-04-30 19:27 -17.04523 -48.01965 23370 ft 375 kts 348°
2026-04-30 19:28 -17.01992 -48.02572 22909 ft 371 kts 348°
2026-04-30 19:28 -16.97015 -48.03757 22057 ft 363 kts 348°
2026-04-30 19:29 -16.92148 -48.04924 21218 ft 355 kts 348°
2026-04-30 19:29 -16.89755 -48.05497 20814 ft 352 kts 349°
2026-04-30 19:30 -16.82681 -48.07191 19586 ft 344 kts 349°
2026-04-30 19:30 -16.78050 -48.08301 18780 ft 340 kts 349°
2026-04-30 19:31 -16.73458 -48.09362 17937 ft 336 kts 350°
2026-04-30 19:31 -16.71187 -48.09871 17525 ft 333 kts 349°
2026-04-30 19:31 -16.66696 -48.10877 16746 ft 327 kts 350°
2026-04-30 19:32 -16.64476 -48.11377 16365 ft 325 kts 350°
2026-04-30 19:32 -16.62272 -48.11875 15981 ft 324 kts 350°
2026-04-30 19:32 -16.60075 -48.12374 15597 ft 322 kts 349°
2026-04-30 19:32 -16.57889 -48.12871 15217 ft 321 kts 350°
2026-04-30 19:33 -16.55707 -48.13365 14821 ft 321 kts 350°
2026-04-30 19:33 -16.53536 -48.13855 14387 ft 323 kts 350°
2026-04-30 19:33 -16.51330 -48.14350 13974 ft 325 kts 350°
2026-04-30 19:33 -16.49112 -48.14848 13572 ft 325 kts 350°
2026-04-30 19:34 -16.46908 -48.15342 13179 ft 325 kts 350°
2026-04-30 19:34 -16.44711 -48.15837 12818 ft 323 kts 350°
2026-04-30 19:34 -16.40366 -48.16821 12139 ft 319 kts 350°
2026-04-30 19:35 -16.38168 -48.17318 11711 ft 318 kts 350°
2026-04-30 19:35 -16.36045 -48.17797 11275 ft 316 kts 350°
2026-04-30 19:35 -16.33904 -48.18281 10881 ft 314 kts 350°
2026-04-30 19:35 -16.31767 -48.18764 10493 ft 315 kts 350°
2026-04-30 19:36 -16.29629 -48.19245 10198 ft 312 kts 351°
2026-04-30 19:36 -16.27493 -48.19725 9857 ft 311 kts 351°
2026-04-30 19:36 -16.23316 -48.20663 9390 ft 304 kts 351°
2026-04-30 19:37 -16.21252 -48.21127 9191 ft 303 kts 351°
2026-04-30 19:37 -16.19211 -48.21587 9035 ft 296 kts 351°
2026-04-30 19:37 -16.17241 -48.22029 8908 ft 284 kts 351°
2026-04-30 19:37 -16.15325 -48.22281 8778 ft 272 kts
2026-04-30 19:38 -16.13499 -48.22000 8622 ft 261 kts 18°
2026-04-30 19:38 -16.11756 -48.21547 8481 ft 257 kts 17°
2026-04-30 19:38 -16.10031 -48.21101 8327 ft 255 kts 18°
2026-04-30 19:38 -16.08309 -48.20658 8182 ft 255 kts 17°
2026-04-30 19:39 -16.06587 -48.20217 8028 ft 254 kts 17°
2026-04-30 19:39 -16.04898 -48.19785 7882 ft 253 kts 17°
2026-04-30 19:39 -16.03191 -48.19349 7767 ft 245 kts 17°
2026-04-30 19:39 -16.01555 -48.18932 7669 ft 241 kts 17°
2026-04-30 19:40 -15.99953 -48.18522 7572 ft 239 kts 17°
2026-04-30 19:40 -15.98416 -48.17914 7465 ft 235 kts 33°
2026-04-30 19:40 -15.97029 -48.17091 7333 ft 224 kts 32°
2026-04-30 19:40 -15.95700 -48.16306 7217 ft 216 kts 33°
2026-04-30 19:41 -15.94413 -48.15546 7103 ft 210 kts 33°
2026-04-30 19:41 -15.93143 -48.14794 6991 ft 211 kts 33°
2026-04-30 19:41 -15.91871 -48.14038 6882 ft 211 kts 33°
2026-04-30 19:41 -15.90595 -48.13282 6771 ft 212 kts 33°
2026-04-30 19:42 -15.89314 -48.12524 6655 ft 211 kts 33°
2026-04-30 19:42 -15.88199 -48.11648 6554 ft 194 kts 52°
2026-04-30 19:42 -15.87576 -48.10477 6442 ft 179 kts 75°
2026-04-30 19:42 -15.87418 -48.09250 6366 ft 165 kts 87°
2026-04-30 19:43 -15.87340 -48.08094 6222 ft 156 kts 86°
2026-04-30 19:43 -15.87268 -48.06979 6057 ft 154 kts 86°
2026-04-30 19:43 -15.87197 -48.05873 5866 ft 154 kts 87°
2026-04-30 19:44 -15.87059 -48.03717 5494 ft 150 kts 87°
2026-04-30 19:44 -15.86991 -48.02653 5312 ft 146 kts 87°
2026-04-30 19:44 -15.86924 -48.01612 5142 ft 144 kts 87°
2026-04-30 19:44 -15.86871 -48.00581 4928 ft 143 kts 86°
2026-04-30 19:45 -15.86810 -47.99550 4725 ft 144 kts 86°
2026-04-30 19:45 -15.86746 -47.98513 4513 ft 143 kts 85°
2026-04-30 19:45 -15.86680 -47.97480 4327 ft 143 kts 84°
2026-04-30 19:45 -15.86609 -47.96446 4168 ft 145 kts 84°
2026-04-30 19:46 -15.86532 -47.95414 4007 ft 144 kts 86°
2026-04-30 19:46 -15.86459 -47.94385 3757 ft 147 kts 85°
2026-04-30 19:46 -15.86395 -47.93340 3585 ft 144 kts 88°
2026-04-30 19:46 -15.86330 -47.92328 3472 ft 133 kts 88°
2026-04-30 19:47 -15.86277 -47.91517 3464 ft 89 kts 86°
2026-04-30 19:47 -15.86257 -47.91152 3470 ft 67 kts 86°
2026-04-30 19:47 -15.86284 -47.90821 3477 ft 19 kts 128°
2026-04-30 19:47 -15.86363 -47.90726 3483 ft 16 kts 131°
2026-04-30 19:48 -15.86423 -47.90737 3484 ft 12 kts 269°
2026-04-30 19:48 -15.86427 -47.90823 3482 ft 14 kts 266°
2026-04-30 19:48 -15.86433 -47.90940 3477 ft 19 kts 267°
2026-04-30 19:48 -15.86442 -47.91091 3470 ft 22 kts 266°
2026-04-30 19:49 -15.86454 -47.91254 3469 ft 23 kts 265°
2026-04-30 19:49 -15.86474 -47.91571 3464 ft 15 kts 265°
2026-04-30 19:49 -15.86530 -47.91630 3467 ft 11 kts 184°
2026-04-30 19:50 -15.86595 -47.91624 3470 ft 10 kts 175°
2026-04-30 19:50 -15.86670 -47.91618 3471 ft 12 kts 176°
2026-04-30 19:50 -15.86763 -47.91613 3472 ft 16 kts 177°
2026-04-30 19:50 -15.86894 -47.91604 3471 ft 20 kts 175°
2026-04-30 19:51 -15.87018 -47.91596 3472 ft 13 kts 179°
2026-04-30 19:51 -15.87056 -47.91662 3472 ft 12 kts 268°
2026-04-30 19:51 -15.87061 -47.91747 3472 ft 12 kts 266°
2026-04-30 19:51 -15.87065 -47.91826 3472 ft 9 kts 267°
2026-04-30 19:52 -15.87084 -47.91866 3471 ft 6 kts 195°
2026-04-30 19:52 -15.87120 -47.91862 3472 ft 3 kts 174°
2026-04-30 19:52 -15.87131 -47.91861 3472 ft 0 kts 175°